Погода в Ерцеве

Россия / Архангельская область     60°47′48″N   40°05′07″E
темп.,
°C
ветер,
м/с
пор.,
м/с
влажн.,
%
обл.,
%
осадки,
мм/ч
давл.,
гПа
погр.,
м
28 июля, ср
ср2800:00+10с11675 0.0 101910
03:00+9ссв11755 0.0 101910
06:00+12вюв11636 0.0 101856
09:00+19ю22405 0.0 1016656
12:00+23юз34325 0.0 10141713
15:00+25з36345 0.0 10112252
18:00+18сз5980100 0.6 1010534
21:00+15юз1190100 1.4 100913
29 июля, чт
чт2900:00+15юз2594100 0.1 100873
03:00+14юз2595100 0.5 100694
06:00+15ююз2697100 1.8 1005188
09:00+16сз2498100 4.0 1004158
12:00+14вюв2598100 4.1 1004187
15:00+16ююв2595100 4.8 1002370
18:00+16ююв1399100 4.4 1000143
21:00+15з21097100 7.1 999393
30 июля, пт
пт3000:00+14зюз31098100 0.0 999274
03:00+14зюз299866 0.0 1000280
06:00+14зюз279712 0.0 1000241
09:00+19зюз3676100 0.0 1000658
12:00+24зюз464943 0.1 10001565
15:00+24зюз474968 0.1 10001681
18:00+23юз374959 0.0 9991269
21:00+18зюз3973100 0.4 999470
31 июля, сб
сб3100:00+14зюз2491100 0.0 1000105
03:00+13юз2698100 1.2 1000139
06:00+14юз2695100 0.1 999174
09:00+19юз36586 0.1 998770
12:00+21з4648100 0.1 9971693
15:00+19зюз465544 0.4 9991191
18:00+18зюз466342 0.0 9991102
21:00+13юз23915 0.0 100057
1 августа, вс
вс100:00+12юз399820 0.0 1002226
03:00+12юз299983 0.0 1002237
06:00+13юз2792100 0.0 1003220
09:00+19юз3561100 0.0 1003728
12:00+21юз3562100 0.3 10021179
15:00+18юз4890100 1.8 1002619
18:00+15юз2599100 3.0 1002222
21:00+14ююз299929 3.7 1003294